Time,TemperatureF,DewpointF,PressureIn,WindDirection,WindDirectionDegrees,WindSpeedMPH,WindSpeedGustMPH,Humidity,HourlyPrecipIn,Conditions,Clouds,dailyrainin,SoftwareType,DateUTC
2013-01-11 00:03:00,44.4,32.2,26.80,SSE,158,7.3,17.2,62,0.00,,,0.00,WUHU216HW,2013-01-11 05:03:00,
2013-01-11 00:08:00,44.4,32.2,26.81,SSE,158,9.6,17.2,62,0.00,,,0.00,WUHU216HW,2013-01-11 05:08:00,
2013-01-11 00:13:00,44.4,32.5,26.81,SSE,158,9.1,13.6,63,0.00,,,0.00,WUHU216HW,2013-01-11 05:13:00,
2013-01-11 00:18:00,44.4,32.5,26.80,SSE,158,7.6,11.1,63,0.00,,,0.00,WUHU216HW,2013-01-11 05:18:00,
2013-01-11 00:23:00,44.4,32.9,26.80,SSE,158,12.7,14.7,64,0.00,,,0.00,WUHU216HW,2013-01-11 05:23:00,
2013-01-11 00:28:00,44.4,32.9,26.79,SE,135,12.3,14.7,64,0.00,,,0.00,WUHU216HW,2013-01-11 05:28:00,
2013-01-11 00:33:00,44.2,32.7,26.79,SE,135,16.1,16.1,64,0.00,,,0.00,WUHU216HW,2013-01-11 05:33:00,
2013-01-11 00:38:00,44.2,33.1,26.79,ESE,113,10.5,17.8,65,0.00,,,0.00,WUHU216HW,2013-01-11 05:38:00,
2013-01-11 00:43:00,44.2,33.1,26.79,SE,135,12.0,17.8,65,0.00,,,0.00,WUHU216HW,2013-01-11 05:43:00,
2013-01-11 00:48:00,44.2,33.5,26.79,SE,135,5.3,12.9,66,0.00,,,0.00,WUHU216HW,2013-01-11 05:48:00,
2013-01-11 00:54:00,44.0,33.3,26.78,South,180,6.4,12.0,66,0.00,,,0.00,WUHU216HW,2013-01-11 05:54:00,
2013-01-11 00:59:00,44.0,33.7,26.77,SE,135,6.9,9.6,67,0.00,,,0.00,WUHU216HW,2013-01-11 05:59:00,
2013-01-11 01:04:00,43.8,33.6,26.77,SE,135,12.3,12.3,67,0.00,,,0.00,WUHU216HW,2013-01-11 06:04:00,
2013-01-11 01:09:00,43.8,34.3,26.78,SSE,158,10.5,15.4,69,0.00,,,0.00,WUHU216HW,2013-01-11 06:09:00,
2013-01-11 01:14:00,43.8,34.7,26.78,SE,135,11.8,15.4,70,0.00,,,0.00,WUHU216HW,2013-01-11 06:14:00,
2013-01-11 01:19:00,43.7,34.6,26.78,SE,135,8.0,12.9,70,0.00,,,0.00,WUHU216HW,2013-01-11 06:19:00,
2013-01-11 01:24:00,43.5,34.7,26.78,SSE,158,7.3,12.5,71,0.00,,,0.00,WUHU216HW,2013-01-11 06:24:00,
2013-01-11 01:29:00,43.5,35.0,26.78,SSE,158,8.5,12.5,72,0.00,,,0.00,WUHU216HW,2013-01-11 06:29:00,
2013-01-11 01:34:00,43.3,34.9,26.78,SE,135,8.2,13.1,72,0.00,,,0.00,WUHU216HW,2013-01-11 06:34:00,
2013-01-11 01:39:00,43.1,35.0,26.78,SE,135,8.0,13.1,73,0.00,,,0.00,WUHU216HW,2013-01-11 06:39:00,
2013-01-11 01:44:00,42.9,35.2,26.78,SE,135,13.1,13.1,74,0.00,,,0.00,WUHU216HW,2013-01-11 06:44:00,
2013-01-11 01:49:00,42.9,35.5,26.79,ESE,113,9.1,13.1,75,0.00,,,0.00,WUHU216HW,2013-01-11 06:49:00,
2013-01-11 01:54:00,42.6,35.5,26.79,SSE,158,4.6,13.1,76,0.00,,,0.00,WUHU216HW,2013-01-11 06:54:00,
2013-01-11 01:59:00,42.4,35.7,26.78,SSE,158,5.5,9.1,77,0.00,,,0.00,WUHU216HW,2013-01-11 06:59:00,
2013-01-11 02:04:00,42.0,35.6,26.77,SE,135,10.7,10.7,78,0.00,,,0.00,WUHU216HW,2013-01-11 07:04:00,
2013-01-11 02:10:00,41.9,35.8,26.78,SSE,158,8.7,10.7,79,0.00,,,0.00,WUHU216HW,2013-01-11 07:10:00,
2013-01-11 02:15:00,41.7,35.6,26.78,SE,135,7.3,10.7,79,0.00,,,0.00,WUHU216HW,2013-01-11 07:15:00,
2013-01-11 02:20:00,41.5,36.0,26.77,SE,135,8.9,9.1,81,0.00,,,0.00,WUHU216HW,2013-01-11 07:20:00,
2013-01-11 02:25:00,41.3,35.9,26.77,SE,135,6.4,9.1,81,0.00,,,0.00,WUHU216HW,2013-01-11 07:25:00,
2013-01-11 02:30:00,41.1,36.0,26.77,SE,135,6.9,9.1,82,0.00,,,0.00,WUHU216HW,2013-01-11 07:30:00,
2013-01-11 02:35:00,41.1,36.3,26.77,SSE,158,4.9,6.9,83,0.00,,,0.00,WUHU216HW,2013-01-11 07:35:00,
2013-01-11 02:40:00,41.1,36.3,26.77,SE,135,7.1,9.1,83,0.00,,,0.00,WUHU216HW,2013-01-11 07:40:00,
2013-01-11 02:45:00,41.1,36.3,26.76,SE,135,0.0,9.1,83,0.00,,,0.00,WUHU216HW,2013-01-11 07:45:00,
2013-01-11 02:50:00,41.1,36.3,26.77,SSE,158,1.7,8.2,83,0.00,,,0.00,WUHU216HW,2013-01-11 07:50:00,
2013-01-11 02:55:00,41.1,36.6,26.77,SSE,158,2.0,8.2,84,0.00,,,0.00,WUHU216HW,2013-01-11 07:55:00,
2013-01-11 03:00:00,41.1,36.6,26.76,SE,135,6.2,8.2,84,0.00,,,0.00,WUHU216HW,2013-01-11 08:00:00,
2013-01-11 03:05:00,41.1,36.6,26.76,SE,135,9.1,9.1,84,0.00,,,0.00,WUHU216HW,2013-01-11 08:05:00,
2013-01-11 03:10:00,41.0,36.7,26.76,SSE,158,6.7,9.6,85,0.00,,,0.00,WUHU216HW,2013-01-11 08:10:00,
2013-01-11 03:16:00,41.0,36.7,26.75,SE,135,6.4,9.8,85,0.00,,,0.00,WUHU216HW,2013-01-11 08:16:00,
2013-01-11 03:21:00,41.0,37.0,26.76,SSE,158,11.4,11.4,86,0.00,,,0.00,WUHU216HW,2013-01-11 08:21:00,
2013-01-11 03:26:00,41.1,37.2,26.74,SSE,158,10.5,12.3,86,0.00,,,0.00,WUHU216HW,2013-01-11 08:26:00,
2013-01-11 03:31:00,41.1,37.2,26.74,SE,135,11.1,12.3,86,0.00,,,0.00,WUHU216HW,2013-01-11 08:31:00,
2013-01-11 03:36:00,41.1,37.2,26.75,SE,135,6.7,11.1,86,0.00,,,0.00,WUHU216HW,2013-01-11 08:36:00,
2013-01-11 03:41:00,41.1,37.2,26.75,SSE,158,6.4,8.0,86,0.00,,,0.00,WUHU216HW,2013-01-11 08:41:00,
2013-01-11 03:46:00,41.1,37.2,26.73,SSE,158,7.3,9.6,86,0.00,,,0.00,WUHU216HW,2013-01-11 08:46:00,
2013-01-11 03:51:00,41.3,37.7,26.72,SE,135,11.4,11.4,87,0.00,,,0.00,WUHU216HW,2013-01-11 08:51:00,
2013-01-11 03:56:00,41.3,37.7,26.71,SE,135,10.9,11.4,87,0.00,,,0.00,WUHU216HW,2013-01-11 08:56:00,
2013-01-11 04:01:00,41.3,37.7,26.71,SSE,158,6.9,12.7,87,0.00,,,0.00,WUHU216HW,2013-01-11 09:01:00,
2013-01-11 04:07:00,41.3,37.7,26.72,SSE,158,11.1,12.7,87,0.00,,,0.00,WUHU216HW,2013-01-11 09:07:00,
2013-01-11 04:12:00,41.3,38.0,26.72,SSE,158,8.2,11.1,88,0.00,,,0.00,WUHU216HW,2013-01-11 09:12:00,
2013-01-11 04:17:00,41.3,38.0,26.73,ESE,113,9.6,11.1,88,0.00,,,0.00,WUHU216HW,2013-01-11 09:17:00,
2013-01-11 04:22:00,41.5,38.2,26.72,SSE,158,0.0,9.6,88,0.00,,,0.00,WUHU216HW,2013-01-11 09:22:00,
2013-01-11 04:27:00,41.5,38.2,26.71,SE,135,4.6,9.6,88,0.00,,,0.00,WUHU216HW,2013-01-11 09:27:00,
2013-01-11 04:32:00,41.5,38.2,26.73,SSE,158,0.0,7.1,88,0.00,,,0.00,WUHU216HW,2013-01-11 09:32:00,
2013-01-11 04:37:00,41.7,38.4,26.71,SSE,158,6.9,7.1,88,0.00,,,0.00,WUHU216HW,2013-01-11 09:37:00,
2013-01-11 04:42:00,41.7,38.4,26.71,SSE,158,6.2,6.9,88,0.00,,,0.00,WUHU216HW,2013-01-11 09:42:00,
2013-01-11 04:47:00,41.9,38.5,26.71,SSE,158,1.5,6.2,88,0.00,,,0.00,WUHU216HW,2013-01-11 09:47:00,
2013-01-11 04:52:00,42.0,38.7,26.71,SSE,158,1.3,6.2,88,0.00,,,0.00,WUHU216HW,2013-01-11 09:52:00,
2013-01-11 04:57:00,42.0,39.0,26.71,SE,135,6.4,6.4,89,0.00,,,0.00,WUHU216HW,2013-01-11 09:57:00,
2013-01-11 05:02:00,42.4,39.4,26.71,SE,135,4.0,6.4,89,0.00,,,0.00,WUHU216HW,2013-01-11 10:02:00,
2013-01-11 05:08:00,42.4,39.4,26.71,SE,135,5.1,6.4,89,0.00,,,0.00,WUHU216HW,2013-01-11 10:08:00,
2013-01-11 05:13:00,42.4,39.4,26.71,SE,135,3.3,5.1,89,0.00,,,0.00,WUHU216HW,2013-01-11 10:13:00,
2013-01-11 05:18:00,42.4,39.4,26.71,SSE,158,1.7,3.3,89,0.00,,,0.00,WUHU216HW,2013-01-11 10:18:00,
2013-01-11 05:23:00,42.6,39.6,26.71,SE,135,1.3,3.3,89,0.00,,,0.00,WUHU216HW,2013-01-11 10:23:00,
2013-01-11 05:28:00,42.6,39.6,26.72,East,90,0.0,1.3,89,0.00,,,0.00,WUHU216HW,2013-01-11 10:28:00,
2013-01-11 05:33:00,42.6,39.6,26.71,SE,135,0.0,0.0,89,0.00,,,0.00,WUHU216HW,2013-01-11 10:33:00,
2013-01-11 05:38:00,42.8,39.7,26.71,SE,135,2.0,3.8,89,0.00,,,0.00,WUHU216HW,2013-01-11 10:38:00,
2013-01-11 05:43:00,42.9,39.9,26.71,SSE,158,0.0,3.8,89,0.00,,,0.00,WUHU216HW,2013-01-11 10:43:00,
2013-01-11 05:48:00,42.9,39.9,26.71,SE,135,0.0,2.0,89,0.00,,,0.00,WUHU216HW,2013-01-11 10:48:00,
2013-01-11 05:54:00,42.9,39.9,26.71,SSE,158,2.0,2.0,89,0.00,,,0.00,WUHU216HW,2013-01-11 10:54:00,
2013-01-11 05:59:00,42.9,39.9,26.71,SSE,158,2.4,2.4,89,0.00,,,0.00,WUHU216HW,2013-01-11 10:59:00,
2013-01-11 06:04:00,42.9,39.9,26.70,SSE,158,8.2,8.2,89,0.00,,,0.00,WUHU216HW,2013-01-11 11:04:00,
2013-01-11 06:09:00,42.9,39.9,26.69,South,180,0.0,8.2,89,0.00,,,0.00,WUHU216HW,2013-01-11 11:09:00,
2013-01-11 06:14:00,42.9,39.9,26.69,SSE,158,5.5,10.0,89,0.00,,,0.00,WUHU216HW,2013-01-11 11:14:00,
2013-01-11 06:19:00,42.6,39.6,26.70,SW,225,7.3,10.0,89,0.00,,,0.00,WUHU216HW,2013-01-11 11:19:00,
2013-01-11 06:24:00,42.6,39.6,26.71,SSE,158,2.2,7.3,89,0.00,,,0.00,WUHU216HW,2013-01-11 11:24:00,
2013-01-11 06:29:00,42.6,39.6,26.71,SSE,158,1.1,7.3,89,0.00,,,0.00,WUHU216HW,2013-01-11 11:29:00,
2013-01-11 06:34:00,42.6,39.6,26.71,SE,135,7.1,7.1,89,0.00,,,0.00,WUHU216HW,2013-01-11 11:34:00,
2013-01-11 06:40:00,42.6,39.6,26.72,SE,135,5.1,7.1,89,0.00,,,0.00,WUHU216HW,2013-01-11 11:40:00,
2013-01-11 06:45:00,42.6,39.6,26.72,SE,135,4.2,7.1,89,0.00,,,0.00,WUHU216HW,2013-01-11 11:45:00,
2013-01-11 06:50:00,42.6,39.6,26.71,SE,135,2.6,5.1,89,0.00,,,0.00,WUHU216HW,2013-01-11 11:50:00,
2013-01-11 06:55:00,42.6,39.9,26.72,SSE,158,5.8,5.8,90,0.00,,,0.00,WUHU216HW,2013-01-11 11:55:00,
2013-01-11 07:00:00,42.6,39.9,26.71,SSE,158,6.7,6.7,90,0.00,,,0.00,WUHU216HW,2013-01-11 12:00:00,
2013-01-11 07:07:00,42.6,39.9,26.71,SSE,158,4.0,7.1,90,0.00,,,0.00,WUHU216HW,2013-01-11 12:07:00,
2013-01-11 07:12:00,42.4,39.7,26.71,SE,135,5.1,7.1,90,0.00,,,0.00,WUHU216HW,2013-01-11 12:12:00,
2013-01-11 07:17:00,42.4,39.7,26.72,SE,135,2.4,6.7,90,0.00,,,0.00,WUHU216HW,2013-01-11 12:17:00,
2013-01-11 07:22:00,42.4,39.7,26.72,SSE,158,0.0,8.9,90,0.00,,,0.00,WUHU216HW,2013-01-11 12:22:00,
2013-01-11 07:27:00,42.0,39.3,26.72,SSE,158,7.6,8.9,90,0.00,,,0.00,WUHU216HW,2013-01-11 12:27:00,
2013-01-11 07:32:00,42.0,39.3,26.72,SSE,158,7.3,7.6,90,0.00,,,0.00,WUHU216HW,2013-01-11 12:32:00,
2013-01-11 07:38:00,42.0,39.3,26.71,SSE,158,6.9,9.3,90,0.00,,,0.00,WUHU216HW,2013-01-11 12:38:00,
2013-01-11 07:43:00,41.9,39.2,26.71,SSE,158,11.1,11.1,90,0.00,,,0.00,WUHU216HW,2013-01-11 12:43:00,
2013-01-11 07:48:00,41.7,39.0,26.71,South,180,10.0,11.8,90,0.00,,,0.00,WUHU216HW,2013-01-11 12:48:00,
2013-01-11 07:53:00,41.7,38.8,26.71,SSE,158,7.3,11.8,90,0.00,,,0.00,WUHU216HW,2013-01-11 12:53:00,
2013-01-11 07:58:00,41.5,38.8,26.71,SE,135,5.3,7.6,90,0.00,,,0.00,WUHU216HW,2013-01-11 12:58:00,
2013-01-11 08:03:00,41.5,38.8,26.72,SSE,158,8.0,8.0,90,0.00,,,0.00,WUHU216HW,2013-01-11 13:03:00,
2013-01-11 08:08:00,41.3,38.6,26.72,SE,135,7.1,8.0,90,0.00,,,0.00,WUHU216HW,2013-01-11 13:08:00,
2013-01-11 08:13:00,41.3,38.6,26.72,SSE,158,4.4,9.1,90,0.00,,,0.00,WUHU216HW,2013-01-11 13:13:00,
2013-01-11 08:19:00,41.1,38.4,26.72,SE,135,7.3,9.1,90,0.00,,,0.00,WUHU216HW,2013-01-11 13:19:00,
2013-01-11 08:24:00,41.1,38.4,26.72,SE,135,6.0,7.6,90,0.00,,,0.00,WUHU216HW,2013-01-11 13:24:00,
2013-01-11 08:29:00,41.0,38.3,26.73,South,180,7.6,7.6,90,0.00,,,0.00,WUHU216HW,2013-01-11 13:29:00,
2013-01-11 08:34:00,40.8,38.1,26.72,SE,135,9.6,9.6,90,0.00,,,0.00,WUHU216HW,2013-01-11 13:34:00,
2013-01-11 08:39:00,40.8,38.1,26.73,SE,135,4.4,9.6,90,0.00,,,0.00,WUHU216HW,2013-01-11 13:39:00,
2013-01-11 08:44:00,40.8,38.1,26.72,SSE,158,2.4,9.6,90,0.00,,,0.00,WUHU216HW,2013-01-11 13:44:00,
2013-01-11 08:49:00,40.8,38.1,26.72,SSE,158,7.3,7.3,90,0.00,,,0.00,WUHU216HW,2013-01-11 13:49:00,
2013-01-11 08:54:00,40.8,38.1,26.72,SSE,158,5.8,7.3,90,0.00,,,0.00,WUHU216HW,2013-01-11 13:54:00,
2013-01-11 08:59:00,40.8,38.1,26.72,SSE,158,5.5,7.3,90,0.00,,,0.00,WUHU216HW,2013-01-11 13:59:00,
2013-01-11 09:04:00,40.8,38.1,26.72,SSE,158,6.4,6.7,90,0.00,,,0.00,WUHU216HW,2013-01-11 14:04:00,
2013-01-11 09:09:00,40.8,38.1,26.72,SSE,158,2.4,6.7,90,0.00,,,0.00,WUHU216HW,2013-01-11 14:09:00,
2013-01-11 09:14:00,40.8,38.1,26.72,SSE,158,4.6,6.4,90,0.00,,,0.00,WUHU216HW,2013-01-11 14:14:00,
2013-01-11 09:19:00,40.8,38.1,26.72,SSE,158,5.5,5.5,90,0.00,,,0.00,WUHU216HW,2013-01-11 14:19:00,
2013-01-11 09:24:00,40.8,38.1,26.72,South,180,0.0,7.1,90,0.00,,,0.00,WUHU216HW,2013-01-11 14:24:00,
2013-01-11 09:29:00,40.8,38.1,26.72,SSE,158,7.1,7.1,90,0.00,,,0.00,WUHU216HW,2013-01-11 14:29:00,
2013-01-11 09:34:00,40.8,38.1,26.72,SSE,158,6.7,7.1,90,0.00,,,0.00,WUHU216HW,2013-01-11 14:34:00,
2013-01-11 09:39:00,40.8,38.1,26.73,SSE,158,2.4,6.7,90,0.00,,,0.00,WUHU216HW,2013-01-11 14:39:00,
2013-01-11 09:44:00,40.8,38.1,26.72,SE,135,1.5,6.7,90,0.00,,,0.00,WUHU216HW,2013-01-11 14:44:00,
2013-01-11 09:49:00,40.8,38.1,26.72,SSE,158,6.7,6.7,90,0.00,,,0.00,WUHU216HW,2013-01-11 14:49:00,
2013-01-11 09:54:00,41.0,38.3,26.72,SE,135,1.7,6.7,90,0.00,,,0.00,WUHU216HW,2013-01-11 14:54:00,
2013-01-11 09:59:00,41.0,38.3,26.71,SE,135,3.3,6.7,90,0.00,,,0.00,WUHU216HW,2013-01-11 14:59:00,
2013-01-11 10:04:00,41.0,38.3,26.71,SE,135,2.2,6.7,90,0.00,,,0.00,WUHU216HW,2013-01-11 15:04:00,
2013-01-11 10:09:00,41.1,38.4,26.71,SSE,158,1.3,6.7,90,0.00,,,0.00,WUHU216HW,2013-01-11 15:09:00,
2013-01-11 10:14:00,41.1,38.4,26.71,SE,135,2.6,2.6,90,0.00,,,0.00,WUHU216HW,2013-01-11 15:14:00,
2013-01-11 10:19:00,41.1,38.4,26.71,SSE,158,4.9,4.9,90,0.00,,,0.00,WUHU216HW,2013-01-11 15:19:00,
2013-01-11 10:24:00,41.3,38.6,26.71,SE,135,0.0,4.9,90,0.00,,,0.00,WUHU216HW,2013-01-11 15:24:00,
2013-01-11 10:29:00,41.5,38.8,26.71,SSE,158,5.5,5.5,90,0.00,,,0.00,WUHU216HW,2013-01-11 15:29:00,
2013-01-11 10:34:00,41.5,38.8,26.71,SE,135,4.9,5.5,90,0.00,,,0.00,WUHU216HW,2013-01-11 15:34:00,
2013-01-11 10:39:00,41.7,39.0,26.70,SSE,158,0.0,4.9,90,0.00,,,0.00,WUHU216HW,2013-01-11 15:39:00,
2013-01-11 10:44:00,41.9,39.2,26.70,SE,135,0.0,1.7,90,0.00,,,0.00,WUHU216HW,2013-01-11 15:44:00,
2013-01-11 10:49:00,42.0,39.3,26.70,SE,135,4.4,7.8,90,0.00,,,0.00,WUHU216HW,2013-01-11 15:49:00,
2013-01-11 10:54:00,42.4,39.7,26.70,SSE,158,4.6,7.8,90,0.00,,,0.00,WUHU216HW,2013-01-11 15:54:00,
2013-01-11 10:59:00,42.4,39.7,26.70,SSE,158,0.6,6.9,90,0.00,,,0.00,WUHU216HW,2013-01-11 15:59:00,
2013-01-11 11:04:00,42.6,39.9,26.70,SE,135,6.4,6.4,90,0.00,,,0.00,WUHU216HW,2013-01-11 16:04:00,
2013-01-11 11:09:00,42.9,40.2,26.69,SE,135,5.5,6.7,90,0.00,,,0.00,WUHU216HW,2013-01-11 16:09:00,
2013-01-11 11:14:00,43.1,40.4,26.68,SE,135,1.7,7.3,90,0.00,,,0.00,WUHU216HW,2013-01-11 16:14:00,
2013-01-11 11:19:00,43.3,40.9,26.68,SSE,158,6.0,7.3,91,0.00,,,0.00,WUHU216HW,2013-01-11 16:19:00,
2013-01-11 11:24:00,43.5,40.8,26.68,SE,135,4.4,8.7,91,0.00,,,0.00,WUHU216HW,2013-01-11 16:24:00,
2013-01-11 11:30:00,43.5,41.0,26.68,SE,135,1.5,8.7,91,0.00,,,0.00,WUHU216HW,2013-01-11 16:30:00,
2013-01-11 11:35:00,43.8,41.4,26.67,SSE,158,7.8,9.8,91,0.00,,,0.00,WUHU216HW,2013-01-11 16:35:00,
2013-01-11 11:40:00,44.4,41.9,26.67,SE,135,8.2,9.8,91,0.00,,,0.00,WUHU216HW,2013-01-11 16:40:00,
2013-01-11 11:45:00,44.4,41.9,26.67,SE,135,10.0,10.0,91,0.00,,,0.00,WUHU216HW,2013-01-11 16:45:00,
2013-01-11 11:50:00,44.7,42.3,26.66,SE,135,10.9,10.9,91,0.00,,,0.00,WUHU216HW,2013-01-11 16:50:00,
2013-01-11 11:55:00,44.9,42.5,26.65,SE,135,11.8,12.7,91,0.00,,,0.00,WUHU216HW,2013-01-11 16:55:00,
2013-01-11 12:00:00,45.3,42.8,26.65,South,180,2.4,12.7,91,0.00,,,0.00,WUHU216HW,2013-01-11 17:00:00,
2013-01-11 12:05:00,45.3,42.8,26.64,SE,135,9.6,11.8,91,0.00,,,0.00,WUHU216HW,2013-01-11 17:05:00,
2013-01-11 12:10:00,45.6,43.2,26.64,SSE,158,9.1,11.8,91,0.00,,,0.00,WUHU216HW,2013-01-11 17:10:00,
2013-01-11 12:15:00,46.0,43.6,26.64,SE,135,1.3,10.7,91,0.00,,,0.00,WUHU216HW,2013-01-11 17:15:00,
2013-01-11 12:20:00,46.0,43.6,26.64,SSE,158,9.3,9.3,91,0.00,,,0.00,WUHU216HW,2013-01-11 17:20:00,
2013-01-11 12:25:00,46.2,43.7,26.64,SSE,158,10.0,10.0,91,0.00,,,0.00,WUHU216HW,2013-01-11 17:25:00,
2013-01-11 12:30:00,46.2,43.7,26.64,SSE,158,2.6,10.0,91,0.00,,,0.00,WUHU216HW,2013-01-11 17:30:00,
2013-01-11 12:35:00,46.2,43.7,26.64,SSE,158,7.8,10.0,91,0.00,,,0.00,WUHU216HW,2013-01-11 17:35:00,
2013-01-11 12:40:00,46.2,43.7,26.64,SE,135,1.5,7.8,91,0.00,,,0.00,WUHU216HW,2013-01-11 17:40:00,
2013-01-11 12:45:00,46.5,44.1,26.63,SE,135,4.6,6.9,91,0.00,,,0.00,WUHU216HW,2013-01-11 17:45:00,
2013-01-11 12:50:00,46.7,44.3,26.64,ESE,113,2.4,4.6,91,0.00,,,0.00,WUHU216HW,2013-01-11 17:50:00,
2013-01-11 12:55:00,47.1,44.6,26.63,SE,135,5.5,7.3,91,0.00,,,0.00,WUHU216HW,2013-01-11 17:55:00,
2013-01-11 13:00:00,47.3,44.8,26.63,SSE,158,6.2,7.6,91,0.00,,,0.00,WUHU216HW,2013-01-11 18:00:00,
2013-01-11 13:05:00,47.6,45.2,26.63,SSE,158,7.1,7.6,91,0.00,,,0.00,WUHU216HW,2013-01-11 18:05:00,
2013-01-11 13:10:00,48.0,45.8,26.63,SSE,158,7.6,7.6,92,0.00,,,0.00,WUHU216HW,2013-01-11 18:10:00,
2013-01-11 13:15:00,48.3,46.2,26.62,SE,135,7.3,7.6,92,0.00,,,0.00,WUHU216HW,2013-01-11 18:15:00,
2013-01-11 13:20:00,48.7,46.5,26.62,SSE,158,5.1,7.6,92,0.00,,,0.00,WUHU216HW,2013-01-11 18:20:00,
2013-01-11 13:25:00,49.1,46.8,26.62,SE,135,4.9,7.3,92,0.00,,,0.00,WUHU216HW,2013-01-11 18:25:00,
2013-01-11 13:30:00,49.2,47.0,26.62,SSE,158,2.9,6.9,92,0.00,,,0.00,WUHU216HW,2013-01-11 18:30:00,
2013-01-11 13:35:00,49.6,47.3,26.61,SE,135,7.8,8.5,92,0.00,,,0.00,WUHU216HW,2013-01-11 18:35:00,
2013-01-11 13:40:00,49.8,47.5,26.61,SSE,158,7.3,8.9,92,0.00,,,0.00,WUHU216HW,2013-01-11 18:40:00,
2013-01-11 13:45:00,50.1,47.5,26.61,SE,135,5.8,8.9,91,0.00,,,0.00,WUHU216HW,2013-01-11 18:45:00,
2013-01-11 13:50:00,50.3,47.7,26.61,SSE,158,5.8,7.6,91,0.00,,,0.00,WUHU216HW,2013-01-11 18:50:00,
2013-01-11 13:55:00,50.9,48.5,26.61,SSE,158,0.0,7.3,92,0.00,,,0.00,WUHU216HW,2013-01-11 18:55:00,
2013-01-11 14:00:00,51.0,48.7,26.61,SSE,158,1.7,7.3,92,0.00,,,0.00,WUHU216HW,2013-01-11 19:00:00,
2013-01-11 14:05:00,51.4,48.8,26.61,SSE,158,0.0,6.9,91,0.00,,,0.00,WUHU216HW,2013-01-11 19:05:00,
2013-01-11 14:10:00,51.6,49.0,26.61,SSE,158,2.6,3.8,91,0.00,,,0.00,WUHU216HW,2013-01-11 19:10:00,
2013-01-11 14:15:00,51.6,49.0,26.61,SSE,158,8.9,8.9,91,0.00,,,0.00,WUHU216HW,2013-01-11 19:15:00,
2013-01-11 14:20:00,51.9,49.3,26.60,South,180,1.5,10.0,91,0.00,,,0.00,WUHU216HW,2013-01-11 19:20:00,
2013-01-11 14:25:00,51.9,49.3,26.60,SE,135,6.7,10.0,91,0.00,,,0.00,WUHU216HW,2013-01-11 19:25:00,
2013-01-11 14:30:00,52.1,49.5,26.60,SSW,203,0.0,8.5,91,0.00,,,0.00,WUHU216HW,2013-01-11 19:30:00,
2013-01-11 14:35:00,52.3,49.7,26.60,SSE,158,0.2,8.5,91,0.00,,,0.00,WUHU216HW,2013-01-11 19:35:00,
2013-01-11 14:40:00,52.5,49.9,26.60,SE,135,1.3,6.7,91,0.00,,,0.00,WUHU216HW,2013-01-11 19:40:00,
2013-01-11 14:45:00,52.8,50.2,26.60,SE,135,0.0,1.5,91,0.00,,,0.00,WUHU216HW,2013-01-11 19:45:00,
2013-01-11 14:51:00,52.8,50.2,26.60,SE,135,6.0,9.1,91,0.00,,,0.00,WUHU216HW,2013-01-11 19:51:00,
2013-01-11 14:56:00,52.8,50.2,26.60,SSE,158,7.3,9.1,91,0.00,,,0.00,WUHU216HW,2013-01-11 19:56:00,
2013-01-11 15:01:00,52.8,50.2,26.60,SSE,158,6.0,8.7,91,0.00,,,0.00,WUHU216HW,2013-01-11 20:01:00,
2013-01-11 15:06:00,53.0,50.4,26.59,South,180,5.3,9.3,91,0.00,,,0.00,WUHU216HW,2013-01-11 20:06:00,
2013-01-11 15:11:00,53.2,50.3,26.59,SSE,158,8.2,9.3,90,0.00,,,0.00,WUHU216HW,2013-01-11 20:11:00,
2013-01-11 15:16:00,53.2,50.3,26.59,SE,135,7.1,8.2,90,0.00,,,0.00,WUHU216HW,2013-01-11 20:16:00,
2013-01-11 15:21:00,53.4,50.5,26.59,SSE,158,6.9,8.2,90,0.00,,,0.00,WUHU216HW,2013-01-11 20:21:00,
2013-01-11 15:26:00,53.4,50.5,26.59,SSE,158,9.3,9.3,90,0.00,,,0.00,WUHU216HW,2013-01-11 20:26:00,
2013-01-11 15:31:00,53.4,50.5,26.59,SE,135,8.2,9.3,90,0.00,,,0.00,WUHU216HW,2013-01-11 20:31:00,
2013-01-11 15:36:00,53.7,50.9,26.59,WSW,248,3.8,9.3,90,0.00,,,0.00,WUHU216HW,2013-01-11 20:36:00,
2013-01-11 15:41:00,53.7,50.9,26.59,SSE,158,3.1,6.4,90,0.00,,,0.00,WUHU216HW,2013-01-11 20:41:00,
2013-01-11 15:46:00,53.9,51.0,26.59,SE,135,1.7,4.4,90,0.00,,,0.00,WUHU216HW,2013-01-11 20:46:00,
2013-01-11 15:51:00,54.1,51.2,26.60,East,90,0.0,4.0,90,0.00,,,0.00,WUHU216HW,2013-01-11 20:51:00,
2013-01-11 15:56:00,54.1,50.9,26.60,SSE,158,1.7,4.0,89,0.00,,,0.00,WUHU216HW,2013-01-11 20:56:00,
2013-01-11 16:01:00,54.3,51.1,26.60,SSE,158,4.6,4.6,89,0.00,,,0.00,WUHU216HW,2013-01-11 21:01:00,
2013-01-11 16:06:00,54.3,51.1,26.60,SSE,158,6.9,6.9,89,0.00,,,0.00,WUHU216HW,2013-01-11 21:06:00,
2013-01-11 16:11:00,54.3,51.1,26.60,SSE,158,6.2,6.9,89,0.00,,,0.00,WUHU216HW,2013-01-11 21:11:00,
2013-01-11 16:16:00,54.3,51.1,26.60,SSE,158,5.3,8.0,89,0.00,,,0.00,WUHU216HW,2013-01-11 21:16:00,
2013-01-11 16:21:00,54.3,50.8,26.59,SSE,158,7.3,8.0,88,0.00,,,0.00,WUHU216HW,2013-01-11 21:21:00,
2013-01-11 16:26:00,54.3,50.8,26.59,SSE,158,6.0,7.3,88,0.00,,,0.00,WUHU216HW,2013-01-11 21:26:00,
2013-01-11 16:31:00,54.1,50.6,26.59,SSE,158,5.3,7.3,88,0.00,,,0.00,WUHU216HW,2013-01-11 21:31:00,
2013-01-11 16:36:00,54.1,50.6,26.59,SE,135,7.6,7.6,88,0.00,,,0.00,WUHU216HW,2013-01-11 21:36:00,
2013-01-11 16:41:00,54.1,50.6,26.59,SSE,158,6.4,7.6,88,0.00,,,0.00,WUHU216HW,2013-01-11 21:41:00,
2013-01-11 16:46:00,53.9,50.4,26.59,SSE,158,8.0,8.0,88,0.00,,,0.00,WUHU216HW,2013-01-11 21:46:00,
2013-01-11 16:51:00,53.7,50.2,26.59,SSE,158,7.3,8.0,88,0.00,,,0.00,WUHU216HW,2013-01-11 21:51:00,
2013-01-11 16:56:00,53.4,49.9,26.59,SSE,158,8.5,8.5,88,0.00,,,0.00,WUHU216HW,2013-01-11 21:56:00,
2013-01-11 17:01:00,53.4,49.9,26.59,SSE,158,7.1,8.5,88,0.00,,,0.00,WUHU216HW,2013-01-11 22:01:00,
2013-01-11 17:06:00,53.4,49.9,26.59,SSE,158,7.8,8.5,88,0.00,,,0.00,WUHU216HW,2013-01-11 22:06:00,
2013-01-11 17:11:00,53.2,49.7,26.59,SSE,158,8.7,9.1,88,0.00,,,0.00,WUHU216HW,2013-01-11 22:11:00,
2013-01-11 17:16:00,53.2,49.7,26.59,SSE,158,10.0,10.5,88,0.00,,,0.00,WUHU216HW,2013-01-11 22:16:00,
2013-01-11 17:21:00,52.8,49.3,26.59,SSE,158,9.1,10.5,88,0.00,,,0.00,WUHU216HW,2013-01-11 22:21:00,
2013-01-11 17:26:00,52.8,49.3,26.59,SSE,158,7.8,9.6,88,0.00,,,0.00,WUHU216HW,2013-01-11 22:26:00,
2013-01-11 17:31:00,52.7,49.2,26.59,SSE,158,9.8,9.8,88,0.00,,,0.00,WUHU216HW,2013-01-11 22:31:00,
2013-01-11 17:36:00,52.5,49.0,26.59,SSE,158,9.1,10.0,88,0.00,,,0.00,WUHU216HW,2013-01-11 22:36:00,
2013-01-11 17:41:00,52.3,48.8,26.60,SSE,158,9.6,10.0,88,0.00,,,0.00,WUHU216HW,2013-01-11 22:41:00,
2013-01-11 17:46:00,52.1,48.6,26.59,SSE,158,9.6,9.8,88,0.00,,,0.00,WUHU216HW,2013-01-11 22:46:00,
2013-01-11 17:51:00,51.9,48.4,26.60,SSE,158,9.3,9.8,88,0.00,,,0.00,WUHU216HW,2013-01-11 22:51:00,
2013-01-11 17:56:00,51.9,48.4,26.61,SSE,158,12.3,12.3,88,0.00,,,0.00,WUHU216HW,2013-01-11 22:56:00,
2013-01-11 18:01:00,51.6,48.1,26.61,SSE,158,8.5,12.3,88,0.00,,,0.00,WUHU216HW,2013-01-11 23:01:00,
2013-01-11 18:06:00,51.6,48.1,26.61,SSE,158,10.5,12.3,88,0.00,,,0.00,WUHU216HW,2013-01-11 23:06:00,
2013-01-11 18:11:00,51.4,47.9,26.61,SSE,158,9.3,10.5,88,0.00,,,0.00,WUHU216HW,2013-01-11 23:11:00,
2013-01-11 18:16:00,51.4,47.9,26.62,SSE,158,7.8,10.5,88,0.00,,,0.00,WUHU216HW,2013-01-11 23:16:00,
2013-01-11 18:21:00,51.4,47.9,26.62,SSE,158,8.5,9.3,88,0.00,,,0.00,WUHU216HW,2013-01-11 23:21:00,
2013-01-11 18:27:00,51.4,47.9,26.62,SSE,158,7.1,8.5,88,0.00,,,0.00,WUHU216HW,2013-01-11 23:27:00,
2013-01-11 18:32:00,51.2,47.7,26.62,South,180,5.8,7.6,88,0.00,,,0.00,WUHU216HW,2013-01-11 23:32:00,
2013-01-11 18:37:00,51.2,47.7,26.62,SSE,158,4.9,7.6,88,0.00,,,0.00,WUHU216HW,2013-01-11 23:37:00,
2013-01-11 18:42:00,51.4,47.9,26.62,South,180,3.5,6.4,88,0.00,,,0.00,WUHU216HW,2013-01-11 23:42:00,
2013-01-11 18:47:00,51.4,47.9,26.62,SSE,158,4.6,6.4,88,0.00,,,0.00,WUHU216HW,2013-01-11 23:47:00,
2013-01-11 18:52:00,51.4,47.9,26.62,South,180,4.6,4.9,88,0.00,,,0.00,WUHU216HW,2013-01-11 23:52:00,
2013-01-11 18:57:00,51.4,48.2,26.62,South,180,2.9,5.8,89,0.00,,,0.00,WUHU216HW,2013-01-11 23:57:00,
2013-01-11 19:02:00,51.4,48.2,26.62,SSE,158,4.0,5.8,89,0.00,,,0.00,WUHU216HW,2013-01-12 00:02:00,
2013-01-11 19:07:00,51.4,48.2,26.62,SSE,158,0.0,4.6,89,0.00,,,0.00,WUHU216HW,2013-01-12 00:07:00,
2013-01-11 19:12:00,51.4,48.2,26.63,SSE,158,0.0,4.6,89,0.00,,,0.00,WUHU216HW,2013-01-12 00:12:00,
2013-01-11 19:17:00,51.6,48.4,26.63,SSE,158,0.0,0.0,89,0.00,,,0.00,WUHU216HW,2013-01-12 00:17:00,
2013-01-11 19:22:00,52.1,48.9,26.63,SSE,158,0.0,0.0,89,0.00,,,0.00,WUHU216HW,2013-01-12 00:22:00,
2013-01-11 19:27:00,52.3,49.1,26.63,SSE,158,0.6,4.9,89,0.00,,,0.00,WUHU216HW,2013-01-12 00:27:00,
2013-01-11 19:32:00,52.5,49.3,26.64,SW,225,0.0,4.9,89,0.00,,,0.00,WUHU216HW,2013-01-12 00:32:00,
2013-01-11 19:37:00,52.8,49.6,26.64,South,180,1.7,4.4,89,0.00,,,0.00,WUHU216HW,2013-01-12 00:37:00,
2013-01-11 19:42:00,53.0,49.8,26.64,SW,225,1.3,4.4,89,0.00,,,0.00,WUHU216HW,2013-01-12 00:42:00,
2013-01-11 19:47:00,53.4,50.2,26.64,South,180,1.1,1.3,89,0.00,,,0.00,WUHU216HW,2013-01-12 00:47:00,
2013-01-11 19:52:00,53.4,50.2,26.63,SW,225,3.3,3.3,89,0.00,,,0.00,WUHU216HW,2013-01-12 00:52:00,
2013-01-11 19:57:00,53.7,50.5,26.63,WSW,248,0.0,3.3,89,0.00,,,0.00,WUHU216HW,2013-01-12 00:57:00,
2013-01-11 20:02:00,53.9,50.7,26.63,SSW,203,0.0,0.8,89,0.00,,,0.00,WUHU216HW,2013-01-12 01:02:00,
2013-01-11 20:07:00,53.9,50.4,26.63,WNW,293,0.0,0.0,88,0.00,,,0.00,WUHU216HW,2013-01-12 01:07:00,
2013-01-11 20:12:00,54.1,50.6,26.63,West,270,0.0,0.0,88,0.00,,,0.00,WUHU216HW,2013-01-12 01:12:00,
2013-01-11 20:17:00,54.1,50.6,26.63,SSW,203,0.0,1.5,88,0.00,,,0.00,WUHU216HW,2013-01-12 01:17:00,
2013-01-11 20:22:00,54.1,50.6,26.63,NW,315,0.0,1.5,88,0.00,,,0.00,WUHU216HW,2013-01-12 01:22:00,
2013-01-11 20:27:00,54.1,50.4,26.63,West,270,0.0,3.8,87,0.00,,,0.00,WUHU216HW,2013-01-12 01:27:00,
2013-01-11 20:32:00,54.3,50.4,26.63,SW,225,1.5,3.8,87,0.00,,,0.00,WUHU216HW,2013-01-12 01:32:00,
2013-01-11 20:37:00,54.5,50.6,26.63,WNW,293,0.0,1.5,87,0.00,,,0.00,WUHU216HW,2013-01-12 01:37:00,
2013-01-11 20:42:00,54.5,50.8,26.63,SSW,203,1.1,1.5,87,0.00,,,0.00,WUHU216HW,2013-01-12 01:42:00,
2013-01-11 20:47:00,54.6,50.8,26.62,SSW,203,0.0,1.1,87,0.00,,,0.00,WUHU216HW,2013-01-12 01:47:00,
2013-01-11 20:52:00,54.6,50.5,26.62,SSW,203,0.0,1.1,86,0.00,,,0.00,WUHU216HW,2013-01-12 01:52:00,
2013-01-11 20:57:00,54.6,50.5,26.63,SW,225,3.5,3.5,86,0.00,,,0.00,WUHU216HW,2013-01-12 01:57:00,
2013-01-11 21:02:00,54.8,50.7,26.63,SW,225,0.0,3.5,86,0.00,,,0.00,WUHU216HW,2013-01-12 02:02:00,
2013-01-11 21:07:00,55.0,50.8,26.63,SW,225,0.0,3.5,86,0.00,,,0.00,WUHU216HW,2013-01-12 02:07:00,
2013-01-11 21:12:00,55.0,50.8,26.63,SE,135,0.0,0.0,86,0.00,,,0.00,WUHU216HW,2013-01-12 02:12:00,
2013-01-11 21:17:00,55.2,51.0,26.62,SSW,203,0.0,0.0,86,0.00,,,0.00,WUHU216HW,2013-01-12 02:17:00,
2013-01-11 21:22:00,55.2,51.0,26.63,SSW,203,0.0,0.0,86,0.00,,,0.00,WUHU216HW,2013-01-12 02:22:00,
2013-01-11 21:27:00,55.2,50.7,26.63,SE,135,0.0,0.0,85,0.00,,,0.00,WUHU216HW,2013-01-12 02:27:00,
2013-01-11 21:32:00,55.4,50.9,26.63,ESE,113,0.0,0.0,85,0.00,,,0.00,WUHU216HW,2013-01-12 02:32:00,
2013-01-11 21:37:00,55.4,50.9,26.63,NE,45,0.0,0.0,85,0.00,,,0.00,WUHU216HW,2013-01-12 02:37:00,
2013-01-11 21:43:00,55.2,50.7,26.63,NE,45,0.0,0.0,85,0.00,,,0.00,WUHU216HW,2013-01-12 02:43:00,
2013-01-11 21:48:00,55.2,50.7,26.63,West,270,0.0,0.0,85,0.00,,,0.00,WUHU216HW,2013-01-12 02:48:00,
2013-01-11 21:53:00,55.2,50.7,26.63,WSW,248,0.0,0.0,85,0.00,,,0.00,WUHU216HW,2013-01-12 02:53:00,
2013-01-11 21:58:00,55.2,50.7,26.63,WSW,248,0.0,0.0,85,0.00,,,0.00,WUHU216HW,2013-01-12 02:58:00,
2013-01-11 22:03:00,55.0,50.5,26.63,WSW,248,0.0,0.0,85,0.00,,,0.00,WUHU216HW,2013-01-12 03:03:00,
2013-01-11 22:08:00,55.0,50.5,26.63,West,270,0.0,0.0,85,0.00,,,0.00,WUHU216HW,2013-01-12 03:08:00,
2013-01-11 22:13:00,55.0,50.5,26.63,West,270,0.0,0.0,85,0.00,,,0.00,WUHU216HW,2013-01-12 03:13:00,
2013-01-11 22:18:00,55.0,50.5,26.63,WNW,293,0.0,0.0,85,0.00,,,0.00,WUHU216HW,2013-01-12 03:18:00,
2013-01-11 22:23:00,55.0,50.5,26.63,WSW,248,2.6,2.6,85,0.00,,,0.00,WUHU216HW,2013-01-12 03:23:00,
2013-01-11 22:28:00,55.0,50.5,26.63,WSW,248,0.0,6.7,85,0.00,,,0.00,WUHU216HW,2013-01-12 03:28:00,
2013-01-11 22:33:00,55.0,50.5,26.64,SW,225,3.1,6.7,85,0.00,,,0.00,WUHU216HW,2013-01-12 03:33:00,
2013-01-11 22:38:00,55.2,50.7,26.64,SSE,158,5.5,5.5,85,0.00,,,0.00,WUHU216HW,2013-01-12 03:38:00,
2013-01-11 22:43:00,55.2,50.7,26.63,WSW,248,0.0,5.5,85,0.00,,,0.00,WUHU216HW,2013-01-12 03:43:00,
2013-01-11 22:48:00,55.2,50.7,26.63,SSE,158,2.2,5.5,85,0.00,,,0.00,WUHU216HW,2013-01-12 03:48:00,
2013-01-11 22:53:00,55.4,50.9,26.63,West,270,0.0,2.2,85,0.00,,,0.00,WUHU216HW,2013-01-12 03:53:00,
2013-01-11 22:58:00,55.5,51.0,26.63,WSW,248,0.0,0.6,85,0.00,,,0.00,WUHU216HW,2013-01-12 03:58:00,
2013-01-11 23:03:00,55.7,51.2,26.63,SSE,158,0.0,0.6,85,0.00,,,0.00,WUHU216HW,2013-01-12 04:03:00,
2013-01-11 23:08:00,55.7,51.2,26.63,SSW,203,0.0,2.2,85,0.00,,,0.00,WUHU216HW,2013-01-12 04:08:00,
2013-01-11 23:13:00,55.7,51.2,26.63,SSE,158,0.0,2.2,85,0.00,,,0.00,WUHU216HW,2013-01-12 04:13:00,
2013-01-11 23:18:00,55.5,50.7,26.63,SSE,158,0.0,0.0,84,0.00,,,0.00,WUHU216HW,2013-01-12 04:18:00,
2013-01-11 23:23:00,55.2,50.3,26.63,South,180,0.0,2.2,84,0.00,,,0.00,WUHU216HW,2013-01-12 04:23:00,
2013-01-11 23:28:00,55.2,50.3,26.63,SE,135,0.6,2.2,84,0.00,,,0.00,WUHU216HW,2013-01-12 04:28:00,
2013-01-11 23:33:00,55.0,50.2,26.63,South,180,0.0,0.6,84,0.00,,,0.00,WUHU216HW,2013-01-12 04:33:00,
2013-01-11 23:38:00,55.0,50.2,26.63,SW,225,0.0,0.0,84,0.00,,,0.00,WUHU216HW,2013-01-12 04:38:00,
2013-01-11 23:43:00,55.0,50.2,26.63,WSW,248,0.0,0.0,84,0.00,,,0.00,WUHU216HW,2013-01-12 04:43:00,
2013-01-11 23:48:00,55.0,50.2,26.63,WSW,248,0.0,0.0,84,0.00,,,0.00,WUHU216HW,2013-01-12 04:48:00,
2013-01-11 23:53:00,55.2,50.7,26.63,WNW,293,2.2,2.2,85,0.00,,,0.00,WUHU216HW,2013-01-12 04:53:00,
2013-01-11 23:58:00,55.2,50.7,26.63,WSW,248,0.0,2.2,85,0.00,,,0.00,WUHU216HW,2013-01-12 04:58:00,